Precipitable_Water
1.24 1.11 1.03 0.74 0.41 0.45 0.38 0.42 0.68 0.62 0.56 0.65 0.73 0.67 0.77 0.94 0.77 0.60 1.29 1.29 1.28 1.33 1.51 1.45 1.47 1.44 1.42 1.37 1.30 1.24 1.25 1.20 1.08 1.10 1.09 1.03 1.11 1.17 1.08 1.06 0.97 0.84 0.79 0.84 0.92 0.98 1.02 1.03 1.05
1.23 1.08 0.90 0.64 0.38 0.30 0.35 0.46 0.51 0.69 0.68 0.78 0.77 0.83 0.76 0.83 1.14 1.16 1.14 1.35 1.33 1.38 1.44 1.41 1.43 1.44 1.41 1.36 1.34 1.34 1.34 1.20 1.09 1.04 0.98 1.02 1.09 1.18 1.17 1.11 1.01 0.81 0.78 0.83 0.86 0.96 1.02 1.03 1.02
1.15 1.06 0.71 0.56 0.42 0.30 0.29 0.46 0.53 0.66 0.80 0.74 0.75 0.95 0.88 0.84 1.14 1.21 1.34 1.39 1.39 1.38 1.40 1.44 1.43 1.44 1.39 1.39 1.36 1.33 1.25 1.18 1.08 0.99 0.97 1.04 1.08 1.24 1.25 1.16 1.01 0.82 0.78 0.86 0.88 0.93 1.01 1.00 1.00
1.00 0.91 0.78 0.52 0.41 0.41 0.38 0.46 0.55 0.58 0.67 0.83 0.81 0.78 1.04 1.21 1.23 1.35 1.45 1.43 1.42 1.36 1.43 1.47 1.43 1.45 1.41 1.40 1.34 1.25 1.18 1.16 1.11 1.07 1.03 1.05 1.12 1.27 1.26 1.17 1.02 0.87 0.84 0.87 0.91 0.93 0.97 0.98 0.98
1.02 0.87 0.59 0.52 0.48 0.48 0.50 0.53 0.54 0.54 0.57 0.69 0.86 0.75 0.90 1.20 1.39 1.54 1.45 1.42 1.35 1.35 1.45 1.44 1.51 1.46 1.40 1.38 1.32 1.24 1.15 1.03 1.05 1.22 1.14 1.09 1.14 1.28 1.24 1.16 1.03 0.93 0.88 0.90 0.90 0.94 0.97 0.99 1.01
0.77 0.86 0.56 0.47 0.50 0.53 0.54 0.60 0.54 0.53 0.54 0.64 0.77 0.82 0.92 1.32 1.33 1.47 1.56 1.46 1.40 1.35 1.43 1.47 1.53 1.44 1.41 1.37 1.32 1.23 1.11 1.03 1.19 1.28 1.26 1.15 1.25 1.31 1.25 1.19 1.09 1.03 0.91 0.98 0.98 0.96 0.99 1.01 1.03
0.67 0.65 0.58 0.57 0.55 0.51 0.53 0.65 0.55 0.54 0.50 0.56 0.85 0.70 0.94 1.16 1.39 1.48 1.52 1.51 1.47 1.42 1.42 1.45 1.47 1.43 1.42 1.39 1.34 1.27 1.07 1.01 1.17 1.23 1.27 1.34 1.36 1.29 1.23 1.18 1.11 1.09 0.97 0.99 1.03 1.03 1.03 1.07 1.07
0.79 0.69 0.62 0.61 0.56 0.52 0.61 0.65 0.67 0.61 0.52 0.77 0.93 0.67 0.72 1.11 1.38 1.49 1.53 1.50 1.45 1.43 1.42 1.41 1.43 1.41 1.41 1.39 1.37 1.31 1.19 0.98 1.12 1.17 1.14 1.19 1.21 1.21 1.21 1.18 1.16 1.16 1.11 1.00 1.05 1.09 1.08 1.06 1.06
0.93 0.61 0.51 0.61 0.60 0.64 0.70 0.64 0.72 0.75 0.65 0.79 0.88 0.92 1.06 1.28 1.37 1.32 1.34 1.38 1.38 1.38 1.37 1.39 1.38 1.43 1.41 1.39 1.39 1.35 1.28 1.08 0.96 1.10 1.13 1.16 1.19 1.20 1.21 1.17 1.17 1.18 1.15 1.07 1.03 1.10 1.10 1.06 1.04
0.70 0.57 0.54 0.70 0.75 0.71 0.73 0.70 0.70 0.67 0.66 0.70 0.72 0.93 1.13 1.28 1.24 1.12 1.10 1.12 1.21 1.25 1.33 1.37 1.38 1.38 1.41 1.38 1.38 1.37 1.32 1.23 1.14 1.09 1.07 1.03 1.05 1.07 1.11 1.15 1.16 1.17 1.16 1.12 1.05 1.05 1.09 1.06 1.02
0.65 0.49 0.62 0.70 0.80 0.83 0.75 0.74 0.78 0.68 0.62 0.71 0.69 0.75 1.01 1.17 1.15 1.15 1.14 1.13 1.16 1.27 1.32 1.38 1.39 1.38 1.38 1.36 1.37 1.35 1.32 1.28 1.24 1.18 1.14 1.08 1.00 0.98 0.98 1.01 1.05 1.09 1.13 1.11 1.07 1.02 1.04 1.04 1.02
0.50 0.63 0.68 0.73 0.85 0.78 0.75 0.80 0.74 0.75 0.74 0.82 0.79 0.81 0.96 1.10 1.10 1.11 1.15 1.19 1.19 1.24 1.31 1.41 1.43 1.42 1.44 1.42 1.38 1.36 1.30 1.28 1.19 1.17 1.14 1.07 1.01 0.95 0.90 0.91 0.93 0.93 1.03 1.04 1.03 1.01 1.01 1.02 1.04
0.52 0.64 0.69 0.80 0.81 0.83 0.83 0.77 0.74 0.76 0.86 0.87 0.84 0.82 0.96 1.04 1.14 1.18 1.26 1.29 1.34 1.27 1.32 1.36 1.38 1.40 1.44 1.43 1.42 1.38 1.31 1.25 1.22 1.19 1.16 1.10 1.01 0.97 1.00 0.89 0.91 0.92 1.04 1.09 1.09 1.06 1.03 1.02 1.05
0.58 0.62 0.68 0.77 0.80 0.85 0.77 0.77 0.77 0.79 0.87 0.82 0.83 0.83 0.87 1.05 1.11 1.19 1.22 1.27 1.34 1.37 1.35 1.36 1.35 1.38 1.42 1.40 1.37 1.32 1.30 1.26 1.25 1.19 1.15 1.15 1.11 1.01 1.04 0.96 0.97 1.05 1.12 1.18 1.19 1.16 1.14 1.12 1.11
0.60 0.49 0.61 0.71 0.76 0.77 0.83 0.68 0.66 0.80 0.85 0.79 0.80 0.85 0.87 0.89 1.07 1.15 1.22 1.28 1.35 1.39 1.39 1.34 1.33 1.37 1.37 1.37 1.37 1.33 1.31 1.31 1.27 1.25 1.23 1.19 1.19 1.15 1.14 1.16 1.12 1.18 1.22 1.20 1.17 1.15 1.16 1.11 1.13
0.52 0.51 0.40 0.63 0.71 0.77 0.78 0.52 0.71 0.82 0.80 0.77 0.80 0.83 0.84 0.85 0.88 1.03 1.23 1.32 1.41 1.42 1.38 1.39 1.38 1.35 1.34 1.34 1.36 1.34 1.34 1.33 1.32 1.32 1.31 1.27 1.23 1.22 1.18 1.17 1.20 1.26 1.24 1.21 1.16 1.14 1.12 1.12 1.16
0.47 0.32 0.34 0.45 0.70 0.67 0.68 0.60 0.71 0.82 0.81 0.78 0.79 0.81 0.81 0.80 0.84 0.87 0.97 1.17 1.31 1.37 1.37 1.37 1.39 1.36 1.37 1.38 1.37 1.36 1.36 1.34 1.36 1.35 1.35 1.35 1.32 1.29 1.23 1.17 1.20 1.26 1.25 1.24 1.21 1.19 1.22 1.18 1.19
0.29 0.31 0.36 0.34 0.55 0.63 0.63 0.62 0.72 0.78 0.79 0.78 0.80 0.82 0.81 0.77 0.78 0.82 0.81 0.94 1.09 1.19 1.22 1.25 1.27 1.28 1.31 1.33 1.32 1.32 1.32 1.32 1.36 1.35 1.36 1.36 1.32 1.31 1.26 1.20 1.19 1.24 1.22 1.22 1.25 1.27 1.30 1.22 1.19
0.36 0.37 0.33 0.40 0.53 0.57 0.56 0.56 0.65 0.73 0.74 0.74 0.79 0.80 0.82 0.81 0.82 0.82 0.78 0.75 0.79 0.90 0.94 1.01 1.09 1.13 1.15 1.11 1.06 1.07 1.04 1.14 1.21 1.27 1.30 1.28 1.26 1.25 1.24 1.21 1.20 1.23 1.20 1.22 1.24 1.23 1.18 1.12 1.18
0.36 0.34 0.33 0.41 0.49 0.52 0.52 0.51 0.59 0.64 0.66 0.68 0.72 0.78 0.82 0.82 0.80 0.80 0.76 0.77 0.75 0.75 0.77 0.77 0.84 0.92 0.99 1.06 1.08 1.09 1.08 1.09 1.14 1.21 1.23 1.26 1.26 1.27 1.25 1.21 1.21 1.17 1.11 1.09 1.09 1.09 1.04 1.04 1.04
0.36 0.31 0.33 0.33 0.44 0.49 0.47 0.43 0.50 0.58 0.62 0.65 0.69 0.79 0.83 0.79 0.76 0.75 0.74 0.76 0.78 0.77 0.78 0.78 0.77 0.78 0.80 0.84 0.90 0.92 0.92 0.91 0.91 0.99 1.05 1.02 1.06 1.13 1.17 1.18 1.18 1.15 1.13 1.02 1.02 1.04 1.00 0.91 0.97
0.30 0.38 0.34 0.32 0.30 0.24 0.41 0.22 0.33 0.44 0.50 0.56 0.58 0.69 0.77 0.77 0.77 0.73 0.73 0.75 0.78 0.80 0.81 0.81 0.78 0.76 0.76 0.76 0.71 0.66 0.63 0.60 0.64 0.66 0.70 0.73 0.78 0.80 0.83 0.85 0.87 0.89 0.93 0.92 0.93 0.99 0.98 0.96 0.83
0.33 0.39 0.34 0.33 0.29 0.28 0.28 0.24 0.25 0.37 0.37 0.45 0.54 0.63 0.75 0.79 0.77 0.72 0.73 0.76 0.79 0.79 0.79 0.78 0.76 0.75 0.76 0.75 0.73 0.69 0.65 0.65 0.66 0.67 0.66 0.68 0.70 0.73 0.74 0.75 0.74 0.73 0.75 0.78 0.79 0.81 0.85 0.90 0.89
0.44 0.38 0.36 0.35 0.31 0.19 0.26 0.26 0.23 0.29 0.32 0.39 0.50 0.58 0.68 0.78 0.75 0.74 0.76 0.76 0.76 0.77 0.78 0.77 0.76 0.74 0.76 0.76 0.74 0.71 0.68 0.66 0.64 0.64 0.63 0.65 0.69 0.70 0.71 0.72 0.72 0.73 0.72 0.73 0.74 0.74 0.74 0.79 0.90
0.41 0.34 0.22 0.20 0.20 0.17 0.28 0.25 0.26 0.35 0.39 0.41 0.42 0.46 0.56 0.64 0.71 0.66 0.66 0.68 0.69 0.70 0.72 0.73 0.73 0.72 0.76 0.76 0.75 0.73 0.70 0.68 0.65 0.65 0.64 0.63 0.65 0.67 0.68 0.70 0.69 0.69 0.70 0.71 0.73 0.75 0.80 0.85 0.86
0.37 0.33 0.21 0.14 0.15 0.18 0.29 0.20 0.25 0.36 0.40 0.43 0.45 0.44 0.46 0.49 0.55 0.64 0.65 0.68 0.69 0.71 0.72 0.71 0.70 0.69 0.71 0.71 0.70 0.71 0.70 0.69 0.68 0.67 0.67 0.66 0.66 0.67 0.68 0.68 0.67 0.66 0.66 0.70 0.75 0.80 0.84 0.88 0.90
0.35 0.30 0.35 0.25 0.25 0.19 0.21 0.26 0.29 0.31 0.32 0.34 0.36 0.40 0.40 0.45 0.50 0.55 0.64 0.68 0.69 0.72 0.74 0.73 0.70 0.70 0.71 0.70 0.68 0.67 0.68 0.67 0.66 0.67 0.68 0.66 0.65 0.63 0.63 0.62 0.60 0.60 0.62 0.64 0.67 0.68 0.70 0.76 0.78
0.42 0.42 0.27 0.27 0.16 0.14 0.18 0.19 0.19 0.25 0.28 0.29 0.29 0.32 0.39 0.43 0.48 0.55 0.63 0.68 0.72 0.74 0.76 0.75 0.72 0.68 0.69 0.68 0.67 0.65 0.65 0.65 0.64 0.64 0.62 0.62 0.61 0.60 0.59 0.59 0.59 0.60 0.60 0.59 0.59 0.61 0.66 0.67 0.70
0.38 0.35 0.36 0.33 0.28 0.18 0.15 0.18 0.29 0.30 0.32 0.32 0.32 0.34 0.38 0.43 0.48 0.55 0.63 0.69 0.73 0.74 0.74 0.72 0.70 0.69 0.68 0.69 0.68 0.66 0.66 0.65 0.65 0.64 0.64 0.63 0.63 0.61 0.60 0.60 0.60 0.59 0.57 0.59 0.59 0.60 0.62 0.61 0.62
0.46 0.38 0.36 0.26 0.23 0.26 0.23 0.21 0.35 0.35 0.37 0.38 0.38 0.39 0.42 0.45 0.52 0.59 0.65 0.69 0.70 0.70 0.71 0.70 0.70 0.69 0.70 0.70 0.69 0.67 0.66 0.65 0.64 0.63 0.64 0.66 0.64 0.64 0.63 0.62 0.61 0.61 0.61 0.61 0.61 0.61 0.61 0.59 0.58
Wind_Speed
28 27 26 25 23 23 23 20 20 19 19 18 17 16 16 14 15 11 12 15 15 14 13 12 11 10 8 8 7 7 7 7 7 6 6 7 7 7 8 8 8 8 7 6 6 6 6 6 6
28 27 27 26 24 25 24 22 20 21 19 19 18 17 15 16 14 13 16 15 17 14 13 13 12 10 9 8 8 7 7 7 6 6 6 6 7 7 7 8 8 8 8 7 7 7 7 7 7
28 28 28 26 26 27 24 23 21 21 22 21 19 17 17 15 16 18 16 18 18 16 14 13 12 11 9 8 7 7 6 6 5 6 6 6 6 6 6 7 8 8 8 8 7 7 7 7 7
28 28 27 27 28 27 24 23 22 20 21 23 20 17 17 16 17 18 20 20 19 17 15 13 13 12 10 9 7 5 4 4 4 6 6 6 6 6 6 6 7 7 7 7 7 6 6 6 7
31 27 28 28 29 27 26 23 22 21 22 22 21 19 17 16 17 20 21 21 20 18 16 14 13 12 11 9 7 5 3 3 4 4 5 5 5 5 5 5 6 6 6 6 6 6 6 6 7
31 30 30 31 29 28 27 24 23 21 22 22 22 20 19 18 18 20 22 22 20 19 17 15 14 13 12 10 7 5 4 4 3 3 3 4 4 4 4 4 4 5 5 5 5 5 5 6 6
34 33 32 29 31 28 28 25 22 22 23 22 22 22 20 20 20 20 22 22 21 20 19 17 15 14 13 11 9 6 4 4 3 2 2 2 2 2 2 2 2 3 3 4 4 4 5 5 6
34 35 32 32 32 30 27 27 24 21 22 22 22 22 21 22 22 21 22 22 22 21 20 18 17 16 14 13 11 8 6 5 5 3 3 2 2 1 1 2 2 3 4 4 5 5 6 6 7
33 33 36 32 30 31 27 27 25 23 22 22 21 21 22 25 24 23 22 22 22 22 21 20 18 17 16 14 12 10 8 7 7 6 6 5 5 5 5 5 5 5 6 6 7 7 8 9 9
34 38 38 36 29 28 28 27 26 24 22 23 20 19 21 25 25 24 23 24 23 23 22 21 20 19 17 16 14 12 11 9 9 8 8 8 8 8 8 8 8 9 9 9 9 10 10 11 12
36 37 34 34 30 29 31 27 26 26 24 23 21 20 23 24 24 24 23 23 24 23 22 22 21 20 19 17 16 14 13 12 11 11 10 10 10 10 11 11 11 11 11 11 12 12 13 13 14
33 33 38 29 31 32 31 30 27 27 27 24 22 21 24 25 25 24 23 22 23 23 23 22 21 21 20 18 17 15 14 13 13 12 12 12 12 12 12 13 13 13 13 13 14 14 15 16 17
33 29 37 31 28 29 33 31 29 28 27 26 23 20 22 25 25 24 24 23 22 22 21 21 21 21 20 18 17 16 15 14 14 13 13 13 13 14 14 14 14 14 14 15 15 16 17 18 18
33 27 32 36 31 26 29 32 32 29 28 26 24 22 21 24 25 25 24 24 24 23 22 21 20 20 20 19 18 17 16 16 15 15 15 15 15 15 15 15 15 16 16 17 17 17 18 19 20
26 31 27 33 32 30 27 35 37 33 29 28 26 25 23 23 25 26 26 25 25 24 23 22 21 21 20 20 19 18 18 17 17 17 17 16 16 16 17 17 17 18 18 19 19 20 21 22 22
24 26 26 29 31 27 28 38 35 34 33 31 29 28 25 24 25 25 26 26 26 26 24 24 23 22 22 21 21 20 20 19 19 19 19 19 19 19 19 19 20 20 21 21 22 23 24 24 25
27 25 25 26 32 25 25 25 34 34 34 34 32 30 28 26 25 25 25 26 26 26 25 25 24 24 24 23 23 23 23 22 22 22 22 22 22 22 22 22 23 23 24 24 25 26 27 27 28
28 24 23 22 31 27 25 21 23 30 34 37 35 33 31 30 29 27 26 26 26 26 26 26 26 26 25 24 24 24 24 25 25 24 24 24 24 24 25 25 26 26 27 27 28 29 29 30 30
24 21 21 20 24 25 27 22 25 26 32 32 37 35 33 32 30 30 28 27 27 27 27 27 27 26 26 25 25 25 25 25 25 26 26 27 27 27 27 27 28 29 29 30 30 31 31 31 32
23 22 20 17 21 22 23 23 25 26 30 31 35 39 36 33 32 32 31 30 30 29 29 28 28 28 28 28 27 27 26 26 27 27 28 28 29 30 30 30 30 31 31 32 32 32 33 33 33
18 22 20 18 17 19 19 22 25 25 27 28 31 37 37 35 34 32 33 33 32 32 31 30 29 29 28 28 28 28 28 28 28 28 28 29 30 30 31 32 32 33 33 33 34 34 34 34 33
17 20 19 18 16 17 22 22 25 29 28 30 31 33 39 37 34 32 33 33 33 32 32 31 30 29 29 29 29 29 29 29 29 29 30 30 30 31 31 31 32 33 33 34 34 34 34 33 33
16 18 17 15 13 14 15 19 23 23 30 31 30 31 35 36 35 33 31 32 32 32 31 30 30 29 30 29 30 30 30 30 30 31 31 31 31 31 32 32 33 33 33 34 34 33 33 33 33
18 15 12 11 11 12 15 17 20 22 26 27 30 31 32 35 36 34 32 32 31 30 29 29 29 29 29 30 30 31 31 31 31 31 30 30 30 30 30 30 30 31 31 31 32 33 33 33 33
16 15 11 11 11 11 8 11 17 16 20 22 27 30 32 34 34 34 33 32 31 30 30 29 29 29 30 30 30 31 31 31 30 30 30 30 30 31 31 31 32 32 32 32 32 31 32 32 32
16 16 13 13 12 11 9 11 9 11 15 21 22 24 26 28 33 33 36 34 32 31 30 29 28 28 29 29 29 29 29 29 30 30 30 31 31 31 32 32 31 31 31 31 31 30 30 30 30
16 13 13 9 8 8 10 11 14 13 13 17 23 24 25 29 30 32 32 34 33 31 31 29 28 28 28 28 28 28 28 28 29 29 29 30 30 30 30 29 29 29 29 29 29 29 29 28 27
14 16 12 10 9 11 10 10 9 7 7 9 14 19 24 22 26 29 31 32 31 31 30 30 29 28 27 27 27 27 27 28 28 28 28 28 28 28 28 28 28 28 28 28 28 28 27 26 25
14 14 12 11 11 10 9 10 10 9 8 10 12 13 18 21 21 25 28 29 30 29 29 28 28 28 27 27 26 26 27 27 27 27 27 27 27 27 27 27 28 28 28 27 26 25 24 24 23
15 15 15 13 14 11 11 14 11 12 12 10 9 9 12 17 20 21 24 27 28 28 28 28 27 27 27 27 27 27 27 27 27 27 27 27 27 27 27 27 27 26 26 25 24 22 22 21 21
Wind_Direction
216 214 210 208 208 209 210 209 208 208 207 209 207 204 204 202 201 207 193 185 178 173 173 170 165 158 148 136 126 117 111 104 93 91 90 91 94 89 78 70 67 65 67 68 67 67 65 59 50
213 211 209 209 209 208 210 208 209 212 212 211 208 205 205 207 205 203 185 188 179 174 172 171 168 163 155 144 131 118 110 105 91 86 89 94 95 89 79 72 67 65 67 66 68 69 66 58 48
212 210 209 209 210 209 208 206 211 215 216 209 208 209 208 207 209 195 194 185 181 178 174 173 172 168 162 154 141 129 115 100 87 85 90 94 95 88 84 73 67 65 65 65 67 66 62 54 44
209 210 211 211 211 212 208 208 212 217 208 208 208 206 210 210 198 203 191 188 186 184 182 178 177 175 170 164 155 144 128 105 93 89 90 95 94 87 86 75 66 63 63 62 61 59 53 46 37
212 212 212 211 212 212 210 210 212 214 214 212 210 209 208 208 206 195 192 190 190 189 188 186 183 182 181 178 172 164 149 125 112 94 91 93 92 85 87 73 64 60 58 55 53 49 43 36 28
213 213 216 213 213 212 212 212 210 213 214 212 210 208 208 206 200 195 194 193 194 194 192 192 192 192 191 190 188 184 176 161 139 105 99 93 90 90 79 69 59 52 48 43 39 35 29 22 17
212 212 219 215 214 214 211 211 210 213 214 212 210 211 214 207 202 197 196 197 199 199 199 199 200 200 199 200 200 201 198 194 189 166 133 107 99 78 59 50 31 23 20 16 13 10 5 2 0
213 213 217 217 212 213 212 210 210 210 211 213 212 212 212 210 203 200 200 202 203 204 206 207 207 206 207 208 209 212 215 217 218 226 237 248 260 281 293 310 325 335 336 332 332 334 334 333 333
211 210 213 214 210 210 211 210 210 211 211 208 211 216 220 207 204 204 204 206 207 209 211 212 212 211 212 213 216 219 224 228 232 241 251 259 266 270 275 283 294 301 305 308 308 311 314 316 317
210 213 212 214 213 209 208 210 210 208 206 211 213 217 212 205 206 207 210 211 211 212 213 215 215 215 216 218 219 224 230 237 243 250 257 263 267 270 272 278 284 289 292 296 299 301 303 307 309
210 215 210 213 209 207 205 208 209 208 207 210 215 221 212 207 209 210 210 212 213 213 214 214 216 217 219 220 222 228 235 241 248 255 261 265 267 269 272 276 280 284 286 290 294 296 298 301 303
209 214 209 209 210 207 208 209 210 210 208 211 215 218 212 211 211 212 211 211 211 212 214 216 218 219 220 221 226 232 238 243 250 257 262 266 268 269 272 275 278 281 283 286 290 294 295 297 300
208 208 208 205 208 211 210 211 212 212 214 215 217 217 213 214 215 216 216 215 213 212 212 214 215 216 218 223 228 234 240 245 251 258 263 266 268 269 273 275 278 280 282 285 289 292 294 296 298
206 209 208 207 207 209 210 214 214 213 214 218 219 218 216 216 217 218 217 215 214 213 214 214 216 218 221 226 231 237 242 247 253 259 263 266 269 271 273 275 277 280 281 285 288 291 294 296 297
203 205 209 208 212 217 219 225 219 217 219 222 223 221 219 219 219 219 220 219 217 216 217 219 221 223 227 231 236 241 245 249 255 260 263 266 269 271 273 276 278 280 281 284 286 289 292 294 296
200 202 205 207 205 214 214 228 220 219 221 223 225 224 222 222 221 221 221 221 222 223 223 224 226 229 232 236 240 244 248 252 257 261 264 267 268 271 273 275 278 280 282 283 285 288 290 292 294
203 202 204 206 206 208 211 225 222 220 221 225 225 224 224 224 222 222 223 223 223 225 225 227 230 233 237 241 244 248 251 254 259 262 265 266 268 270 272 275 278 280 281 283 285 287 288 291 292
198 200 203 205 207 211 213 224 221 220 219 225 226 225 226 225 226 225 225 226 226 227 229 232 234 237 240 244 247 250 253 256 259 263 265 266 268 271 273 275 277 279 281 283 285 286 288 290 291
197 198 199 208 208 211 217 225 218 222 219 224 226 225 227 226 227 226 230 228 229 230 232 235 237 240 242 245 248 252 255 258 261 263 266 268 270 271 273 275 278 279 281 283 284 285 287 288 290
194 196 201 206 205 209 215 224 224 221 222 229 226 227 226 228 227 230 232 232 232 234 237 238 241 243 245 248 250 253 257 260 263 265 268 269 270 272 274 275 277 279 281 282 283 284 286 287 289
198 195 200 204 208 218 217 231 227 225 227 230 231 226 225 227 228 235 234 232 236 236 238 239 241 243 246 249 251 254 258 262 264 266 269 271 273 274 275 276 277 279 280 282 283 284 284 286 287
193 198 200 201 209 221 223 235 229 227 229 230 232 230 226 229 231 236 236 235 234 237 240 241 242 244 247 249 252 256 259 262 264 267 269 271 273 274 276 277 278 279 280 282 282 283 283 284 285
193 191 195 203 210 220 231 237 237 230 230 230 232 232 231 230 229 233 235 234 234 237 238 239 242 244 248 251 254 257 259 262 265 267 269 271 272 274 276 278 279 280 281 282 282 282 283 283 284
182 179 187 201 214 233 226 231 237 236 236 234 233 232 231 230 232 233 234 233 233 235 236 239 242 246 249 252 256 258 261 263 265 267 269 271 273 275 277 279 280 282 283 283 284 284 283 283 283
183 181 193 204 217 226 225 231 244 239 236 233 233 234 232 231 231 231 229 229 231 233 236 239 244 248 252 255 258 260 262 263 264 266 268 271 273 275 278 280 281 282 283 283 284 284 284 284 283
187 192 198 206 214 226 224 232 239 236 242 239 235 237 238 235 234 231 229 229 231 234 237 240 245 249 253 256 258 260 261 263 264 267 269 271 274 276 278 280 281 282 283 283 283 284 285 285 284
196 199 201 197 222 224 228 247 262 261 256 251 243 241 241 239 236 232 228 228 229 233 237 241 246 250 253 254 257 259 262 264 265 267 270 272 274 276 278 279 281 282 283 284 284 284 284 284 284
203 200 211 222 221 234 238 245 241 251 273 277 263 252 241 240 232 229 226 225 229 233 238 242 246 249 252 254 257 259 262 264 266 268 270 272 274 275 277 279 280 282 283 284 285 284 284 283 283
204 209 212 214 223 226 243 245 229 227 279 292 282 262 242 237 233 227 225 226 229 233 237 241 245 247 251 254 257 260 262 264 266 267 270 272 274 275 277 279 280 283 284 284 283 284 283 283 283
213 214 215 222 231 238 240 244 236 253 276 278 289 277 251 233 226 225 226 228 232 235 237 241 245 248 252 255 257 260 262 264 266 268 269 271 273 275 277 279 280 282 283 283 283 282 282 283 284